RH
32 32 31 31 31 30 29 29 28 28 27 27 26 26 26 25 25 25 24 24 24 24 24 24 24 24 25 25 26 27 28 28 28 28 28 27 28 29 29 30 30 30 31 32 32 32 32 33 34 38 43 50 50 47 42 38 40 48 55 57 54 49 43 39 39 39 40 40 40
33 32 32 32 31 30 29 29 28 27 27 26 26 26 25 25 25 24 24 24 25 25 25 26 27 27 28 29 30 31 32 33 33 33 32 32 32 31 31 31 31 32 32 32 32 34 38 41 43 43 43 42 42 40 38 38 41 45 49 50 46 42 40 40 40 40 40 41 41
34 34 33 32 32 31 30 29 29 28 27 27 26 26 26 25 25 25 25 26 26 27 28 29 30 31 32 33 33 34 35 35 35 35 35 35 34 33 32 32 32 33 32 32 34 40 45 50 47 44 41 39 38 38 38 39 40 41 41 41 40 40 40 41 41 41 41 41 41
36 35 35 34 33 32 32 30 30 29 28 28 27 27 27 26 26 27 27 27 28 29 30 31 32 33 34 35 35 35 35 35 35 35 35 35 35 34 33 33 34 33 33 34 36 38 40 41 42 41 40 39 39 38 38 38 38 38 38 39 40 41 42 42 42 41 41 41 41
38 37 36 36 35 34 33 32 31 30 29 28 28 28 28 28 28 28 28 28 29 30 32 33 34 34 35 35 35 35 35 35 34 34 34 34 34 34 34 34 34 33 33 32 33 33 35 37 40 41 41 40 39 38 38 38 38 39 39 40 41 41 42 42 42 41 41 41 42
40 39 38 38 37 36 34 33 32 31 30 29 29 29 29 29 29 29 29 29 30 31 32 33 34 34 34 34 34 34 34 34 34 33 33 33 33 33 33 33 33 33 33 33 33 35 39 42 43 43 42 40 40 41 42 41 40 40 40 41 42 42 42 42 42 41 41 42 42
42 42 41 40 39 37 36 34 33 32 31 31 30 31 31 31 31 31 31 31 31 32 32 33 33 33 33 33 33 33 33 33 33 33 33 33 33 33 33 33 33 34 34 35 38 43 46 46 44 42 40 40 42 44 44 42 42 41 42 42 42 42 42 42 42 42 42 41 40
45 44 43 41 40 38 37 36 34 34 33 33 33 33 33 33 33 33 33 32 32 32 33 33 33 33 33 32 32 32 32 32 33 33 33 33 33 33 33 33 34 35 36 37 42 45 45 44 42 41 40 40 41 41 41 41 42 42 42 43 43 42 42 42 42 42 41 40 38
47 45 44 43 41 40 39 37 36 36 35 35 35 35 35 34 34 34 33 32 32 32 32 32 32 32 32 32 32 32 32 33 33 33 33 33 33 34 34 35 36 37 38 39 41 42 42 42 41 41 41 41 41 41 42 42 42 43 43 43 43 42 42 41 41 40 39 38 36
47 46 44 43 42 41 40 39 38 38 37 37 37 36 35 34 33 32 32 31 31 31 31 31 31 31 31 31 32 32 33 33 34 34 34 34 35 35 36 36 38 39 40 41 42 42 42 42 41 41 41 41 42 42 42 42 42 43 42 42 41 40 39 38 38 37 37 37 36
45 44 43 41 41 40 39 39 39 38 38 38 37 36 35 34 32 31 30 29 29 29 29 29 29 29 30 30 31 32 32 33 33 34 35 35 35 36 36 37 39 40 42 42 42 42 42 42 41 42 42 42 42 42 42 41 41 40 39 37 37 36 36 36 37 37 36 36 34
43 41 40 39 38 38 38 37 37 37 37 37 36 35 34 33 32 31 30 29 29 29 29 29 29 29 30 30 31 32 32 33 34 35 35 36 36 37 38 39 41 42 42 42 42 42 41 41 41 40 40 40 40 39 39 38 37 37 36 36 36 36 37 37 37 36 35 34 32
41 40 38 37 37 36 36 36 36 35 35 35 35 34 34 33 32 32 32 31 31 31 31 31 31 31 32 32 33 33 34 35 36 36 37 37 38 39 39 40 41 41 41 40 40 39 38 37 37 37 36 36 36 36 36 36 36 36 36 36 37 37 37 37 36 35 33 31 30
42 40 39 38 38 38 37 37 37 37 36 36 36 36 35 35 35 35 34 34 34 34 34 34 34 34 34 34 35 35 36 36 37 38 39 39 39 40 40 39 39 39 38 38 37 36 36 35 35 35 35 35 36 36 37 37 37 37 37 38 38 37 37 36 34 32 31 30 29
44 43 43 42 42 42 41 41 40 40 39 39 39 38 38 38 38 38 37 37 37 36 35 35 35 34 34 34 35 35 36 36 37 38 39 40 40 40 40 39 39 38 37 37 36 36 36 35 36 36 36 37 37 37 38 38 38 38 38 38 37 36 35 33 32 31 30 30 29
49 48 48 47 47 46 46 45 44 43 42 42 42 41 41 40 40 39 38 37 36 35 34 33 33 33 33 33 33 34 34 35 36 37 38 38 39 39 38 38 38 37 36 36 36 36 36 36 36 37 37 38 38 38 38 38 38 38 38 37 36 35 33 32 31 30 30 30 29
55 54 53 52 51 50 49 48 47 46 45 44 43 42 41 40 39 38 36 35 34 33 32 32 31 31 31 31 32 33 33 34 34 35 35 35 35 35 36 36 35 35 35 35 35 36 36 36 36 37 38 38 38 39 39 38 38 38 37 36 35 33 32 32 32 31 31 31 31
58 57 56 55 54 52 51 49 48 46 45 44 42 41 39 38 36 35 34 33 32 32 31 31 31 31 31 31 32 32 33 32 32 33 33 33 33 33 33 34 34 34 34 35 35 36 36 37 37 38 38 39 39 39 39 39 38 37 36 35 34 33 33 33 33 33 33 32 32
58 57 56 56 54 53 51 49 47 45 43 42 40 38 37 36 35 34 33 32 32 31 31 31 31 31 31 31 32 32 32 32 31 31 31 32 32 32 32 33 34 34 35 35 36 36 37 38 38 38 39 39 39 39 39 39 38 37 36 35 34 34 35 35 35 34 33 33 34
58 57 56 55 54 52 50 48 45 43 41 39 38 36 35 34 34 33 33 32 32 31 31 31 32 32 32 32 32 32 31 31 31 31 31 32 32 33 33 33 34 35 35 36 37 38 38 38 39 39 39 39 39 40 39 39 38 37 36 36 36 37 37 37 36 35 35 35 37
58 57 56 56 54 52 50 46 43 41 39 37 36 35 35 34 34 33 33 32 32 32 33 33 33 33 33 32 32 32 31 32 32 32 32 32 33 33 33 34 35 36 36 37 38 38 38 38 39 39 39 40 40 40 40 39 38 37 37 37 38 38 38 37 36 36 37 39 41
59 58 57 56 54 52 49 45 42 39 37 36 36 35 35 35 34 34 34 34 34 34 34 34 34 33 33 33 32 32 32 33 33 33 33 33 33 34 34 35 36 37 37 38 38 38 38 38 39 40 40 41 41 41 40 39 38 38 38 39 39 39 38 38 38 40 41 43 45
60 59 58 56 54 51 48 44 41 39 37 37 36 36 36 36 35 35 35 35 35 35 35 35 34 34 34 34 34 34 35 35 35 35 35 35 36 36 37 38 38 38 38 38 38 39 39 39 40 41 42 42 42 41 40 38 38 39 39 40 40 39 40 40 42 44 46 47 48
61 60 58 56 54 52 48 45 42 40 38 38 38 38 37 37 36 36 36 35 35 35 35 35 35 36 36 37 38 38 39 39 39 39 39 39 40 40 41 41 41 40 40 40 40 40 41 42 42 43 43 43 42 41 39 39 39 40 40 41 41 41 42 44 46 48 49 49 48
61 59 58 56 54 52 49 46 43 42 41 40 40 39 38 38 37 36 36 35 35 36 36 37 38 40 41 41 42 42 43 44 44 44 44 43 44 44 44 44 43 43 43 43 43 43 44 45 45 45 44 43 42 40 39 39 40 41 41 42 43 44 46 48 49 49 49 47 45
60 59 57 56 54 52 50 48 46 44 43 42 41 40 39 37 36 36 36 36 37 38 40 41 43 43 44 44 45 45 45 45 45 45 45 45 45 45 45 45 45 45 45 45 46 46 46 47 47 46 45 43 41 40 39 40 41 42 43 44 46 47 49 50 49 48 45 42 38
58 58 57 56 54 53 51 49 47 46 44 42 41 40 38 37 37 37 38 39 41 43 44 45 45 45 46 46 46 46 45 45 45 44 44 44 44 45 45 46 46 47 47 48 48 48 48 48 48 46 44 42 41 40 40 41 42 43 45 47 48 49 49 48 45 41 37 33 30
57 57 57 56 55 53 52 50 48 46 44 42 40 39 38 38 39 40 42 44 45 46 47 47 47 46 46 46 46 45 45 44 45 45 45 45 45 45 46 46 47 48 49 50 50 50 49 49 47 45 43 41 41 41 41 42 44 45 47 49 48 47 45 41 37 33 30 28 27
56 56 56 56 54 53 52 49 47 44 42 41 40 39 39 40 42 44 45 47 47 47 47 47 47 47 46 46 45 45 45 45 46 46 47 47 47 48 49 49 50 50 51 51 51 50 49 47 45 43 42 41 41 42 43 45 46 47 48 46 43 40 36 32 30 28 27 27 26
55 55 55 55 54 52 50 47 45 43 41 40 40 41 42 44 45 47 47 48 48 48 47 47 46 46 46 46 46 47 47 48 48 49 49 50 51 51 52 53 53 53 53 52 51 50 48 46 44 43 42 42 43 45 46 48 46 44 41 38 35 32 30 28 26 25 24 22 21
54 54 54 53 52 50 47 45 43 42 42 42 43 44 46 47 48 48 48 48 47 47 46 46 46 46 47 48 49 50 51 51 52 52 53 53 54 55 55 56 56 55 54 53 51 49 47 45 44 44 44 46 47 47 46 43 39 36 33 31 28 26 24 22 21 19 18 16 14
53 53 52 51 49 47 45 43 43 43 43 45 46 47 48 49 49 48 48 47 46 46 46 46 47 48 49 51 52 53 54 54 55 55 55 56 56 57 58 58 58 56 54 52 50 48 47 46 46 47 47 47 44 40 36 33 30 28 26 23 21 19 18 16 15 14 13 12 11
52 51 50 48 46 45 44 44 44 45 46 47 48 49 49 49 48 47 46 46 46 46 47 49 50 51 53 54 55 56 56 57 57 57 58 58 58 59 59 59 58 56 54 51 50 49 48 48 47 45 42 37 33 30 28 26 23 21 18 17 15 15 14 13 12 12 12 12 11
50 49 48 47 46 45 45 46 46 47 48 49 49 48 48 47 46 46 46 47 48 49 50 52 54 55 56 57 57 58 58 58 58 58 59 59 60 60 59 58 57 55 53 51 50 48 46 43 39 34 30 27 25 23 21 19 17 15 15 14 14 14 13 13 13 13 13 13 12
49 48 48 47 47 47 47 48 48 49 49 48 47 47 46 46 46 47 48 50 51 52 54 55 56 57 58 58 58 58 58 58 58 59 59 59 60 60 58 57 55 53 51 48 44 40 35 31 27 24 22 20 19 18 16 16 15 15 15 15 15 15 15 14 14 14 14 13 13
49 49 49 49 48 49 49 49 49 49 48 47 46 46 47 47 49 50 52 53 54 56 56 57 58 58 58 58 58 58 58 58 59 59 59 60 59 58 57 54 50 46 41 36 32 28 25 22 21 20 18 18 17 16 16 16 16 16 17 17 17 16 16 16 16 15 15 15 15
51 51 51 50 50 50 50 50 49 48 47 47 47 48 49 51 53 54 55 56 57 57 58 58 58 58 58 57 57 57 58 59 59 60 59 58 56 53 49 45 39 33 29 26 23 22 20 20 19 18 18 18 18 18 18 18 18 18 18 18 18 18 18 18 17 17 17 17 17
53 53 53 53 52 51 51 50 49 49 49 49 50 51 53 54 55 56 56 57 58 58 58 57 57 57 56 56 57 58 59 59 59 57 54 51 46 41 36 32 28 25 23 22 21 21 20 20 20 19 19 19 19 19 19 19 20 20 20 20 20 20 20 20 20 20 20 20 19
56 55 54 54 53 52 51 51 51 51 51 52 53 55 56 56 57 57 57 57 57 57 57 56 56 56 56 57 58 57 57 55 52 47 43 38 33 29 26 24 23 23 22 22 22 22 22 21 21 21 20 20 20 21 21 21 22 22 23 23 24 24 24 24 23 23 22 22 21
56 56 55 54 54 53 53 53 53 54 54 55 56 57 57 57 57 57 56 56 56 55 55 55 54 55 55 55 54 51 48 44 39 34 30 27 25 24 23 23 23 23 23 23 23 23 23 22 22 22 22 22 22 23 23 24 24 25 26 27 27 27 27 26 26 25 24 23 23
56 56 55 55 55 55 55 55 56 56 57 57 58 58 57 57 56 56 55 54 53 53 52 52 52 51 50 48 44 40 35 31 27 25 23 23 22 23 23 24 24 24 24 24 24 24 24 24 24 24 24 24 25 25 26 27 28 28 29 29 30 29 29 28 28 27 26 25 24